Weather in Pet'yal

Russia / Mari El Republic     56°05′54″N   48°41′34″E
temp.,
°C
wind,
m/s
gust,
m/s
humid.,
%
clouds,
%
prec.,
mm/h
press.,
hPa
HPBL,
m
3 march, wed
wed300:00−7w349854 0.0 100083
03:00−7w379867 0.0 1000134
06:00−4w4109695 0.1 1000388
09:00−5wnw6109397 0.4 1001610
12:00−3nw6991100 0.3 1002865
15:00−5nw71088100 0.4 1004786
18:00−6wnw51091100 0.1 1004687
21:00−7wnw51092100 0.2 1006640
4 march, thu
thu400:00−11sw359782 0.0 100388
03:00−5wsw6129591 0.8 1001585
06:00−4wsw51295100 0.6 998515
09:00−2wsw71395100 1.8 996838
12:00−1wsw71190100 0.6 994942
15:000wsw71191100 1.9 9931047
18:00−4w5138667 1.2 994360
21:00−6w5119483 1.2 997342
5 march, fri
fri500:00−8w3397100 0.1 99848
03:00−10nw2296100 0.1 99921
06:00−10n2393100 0.0 100049
09:00−10nne3590100 0.0 1001245
12:00−8n4585100 0.0 1002426
15:00−8nw578567 0.0 1005640
18:00−12nw359280 0.0 100884
21:00−15nw339444 0.0 101132
6 march, sat
sat600:00−17wnw23980 0.0 101220
03:00−18w22989 0.0 101320
06:00−18sw239945 0.0 101220
09:00−14sw349542 0.0 1012167
12:00−9sw359081 0.0 1012348
15:00−9wsw469262 0.1 1011474
18:00−11wsw3796100 0.1 1011172
21:00−16nw239094 0.2 101121
7 march, sun
sun700:00−19w239921 0.0 101120
03:00−19wsw349924 0.0 101259
06:00−19sw359999 0.1 101186
09:00−15sw479397 0.1 1010259
12:00−11ssw6108698 0.0 1008473
15:00−9s8138999 0.0 1005795
18:00−8s81593100 0.5 1002916
21:00−7s91594100 1.7 9971043